Weather History for LICZ - May, 2013

Change the Weather History Date:

Thursday, May 2, 2013

  Actual Average Record
Temperature  
Mean Temperature 65 °F -  
Max Temperature 82 °F 79 °F 85 °F (2015)
Min Temperature 48 °F 54 °F 44 °F (1998)
Growing Degree Days 15 (Base 50)    
Moisture  
Dew Point 57 °F    
Average Humidity 67    
Maximum Humidity 100    
Minimum Humidity 25    
Precipitation  
Precipitation 0.08 in 0.03 in - ()
Sea Level Pressure  
Sea Level Pressure 29.96 in    
Wind  
Wind Speed 5 mph ()    
Max Wind Speed 16 mph    
Max Gust Speed -    
Visibility 5.9 miles    
Events Rain    
Averages and records for this station are not official NWS values.
T = Trace of Precipitation, MM = Missing Value Source: Averaged Metar Reports

Daily Weather History Graph

Daily Weather History Graph

Search for Another Location

Airport or City:

Trip Planner

Search our weather history database for the weather conditions in past years. The results will help you decide how hot, cold, wet, or windy it might be!

Date:

Astronomy

May. 02, 2013 Rise Set
Actual Time 6:04 AM CEST 7:50 PM CEST
Civil Twilight 5:36 AM CEST 8:19 PM CEST
Nautical Twilight 5:02 AM CEST 8:53 PM CEST
Astronomical Twilight 4:25 AM CEST 9:29 PM CEST
Moon 1:30 AM CEST 12:30 PM CEST
Length of Visible Light 14h 43m
Length of Day
13h 46m
Waning Gibbous, 51% of the Moon is Illuminated
May 2
Waning Gibbous
May 2
Last Quarter
May 10
New
May 18
First Quarter
May 25
Full

Hourly Weather History & Observations

Time (CEST) Temp. Heat Index Dew Point Humidity Pressure Visibility Wind Dir Wind Speed Gust Speed Precip Events Conditions
12:55 AM 60.8 °F - 51.8 °F 72% 30.04 in 6.2 mi WNW 2.3 mph - N/A   Mostly Cloudy
1:55 AM 60.8 °F - 51.8 °F 72% 30.01 in 6.2 mi West 3.5 mph - N/A   Mostly Cloudy
2:00 AM 62 °F - 51 °F 59% 30.03 in 6 mi West 3.5 mph - -   Mostly Cloudy
2:55 AM 60.8 °F - 50.0 °F 68% 30.01 in 6.2 mi Calm Calm - N/A   Mostly Cloudy
3:55 AM 60.8 °F - 53.6 °F 77% 29.98 in - SW 3.5 mph - N/A   Clear
4:55 AM 60.8 °F - 55.4 °F 82% 29.98 in - SW 6.9 mph - N/A   Clear
5:00 AM 60 °F - 56 °F 82% 29.99 in 6 mi SW 6.9 mph - -   Clear
5:55 AM 59.0 °F - 59.0 °F 100% 29.95 in 5.0 mi North 2.3 mph - N/A   Partly Cloudy
6:55 AM 57.2 °F - 57.2 °F 100% 29.98 in 5.0 mi Calm Calm - N/A   Unknown
7:55 AM 62.6 °F - 57.2 °F 82% 29.98 in 5.0 mi Calm Calm - N/A   Scattered Clouds
8:00 AM 62 °F - 56 °F 76% 29.99 in 5 mi Calm Calm - -   Mist
8:55 AM 69.8 °F - 50.0 °F 49% 29.95 in - North 4.6 mph - N/A   Clear
9:55 AM 75.2 °F - 50.0 °F 41% 29.95 in - WNW 2.3 mph - N/A   Clear
10:55 AM 78.8 °F - 48.2 °F 34% 29.95 in - ENE 4.6 mph - N/A   Clear
11:00 AM 78 °F - 49 °F 25% 29.95 in 7 mi ENE 4.6 mph - -  
11:55 AM 78.8 °F - 48.2 °F 34% 29.95 in - East 11.5 mph - N/A   Clear
12:55 PM 78.8 °F - 50.0 °F 36% 29.95 in - East 9.2 mph - N/A   Clear
1:55 PM 80.6 °F 80.3 °F 53.6 °F 39% 29.95 in - East 11.5 mph - N/A   Clear
2:00 PM 80 °F - 53 °F 29% 29.94 in 7 mi East 11.5 mph - -  
2:55 PM 78.8 °F - 57.2 °F 47% 29.92 in - East 13.8 mph - N/A   Clear
3:55 PM 78.8 °F - 57.2 °F 47% 29.92 in - East 16.1 mph - N/A   Clear
4:55 PM 77.0 °F - 59.0 °F 54% 29.89 in 6.2 mi East 16.1 mph - N/A   Partly Cloudy
5:00 PM 76 °F - 60 °F 47% 29.91 in 7 mi East 16.1 mph - -   Scattered Clouds
5:55 PM 75.2 °F - 60.8 °F 61% 29.92 in 6.2 mi East 11.5 mph - N/A   Partly Cloudy
6:55 PM 71.6 °F - 62.6 °F 73% 29.89 in 6.2 mi East 9.2 mph - N/A   Scattered Clouds
7:55 PM 68.0 °F - 64.4 °F 88% 29.92 in 6.2 mi East 6.9 mph - N/A   Scattered Clouds
8:00 PM 69 °F - 64 °F 78% 29.92 in 6 mi East 6.9 mph - -   Scattered Clouds
8:55 PM 68.0 °F - 68.0 °F 100% 29.95 in 6.2 mi East 4.6 mph - N/A   Scattered Clouds
9:55 PM 68.0 °F - 68.0 °F 100% 29.98 in 6.2 mi NNE 2.3 mph - N/A   Scattered Clouds
10:55 PM 68.0 °F - 68.0 °F 100% 30.01 in 5.0 mi NNW 4.6 mph - N/A Rain Light Rain
11:00 PM 68 °F - 68 °F 98% 30.02 in 5 mi NNW 4.6 mph - - Rain Light Rain
11:55 PM 66.2 °F - 66.2 °F 100% 30.01 in 5.0 mi ESE 2.3 mph - N/A Rain Light Rain